Location: Unspecified
(0.0000°N, 0.0000°E)
Time: 05:11:48
(UTC+00:00)

Amateur Radio Satellites - All Passes

Search period start: 27 April 2017 04:41
Search period end: 28 April 2017 04:41
Location: Unspecified, 0.0000°N, 0.0000°E

Satellite Date Start Highest point End Downlink Frequencies (MHz)
Time Altitude Azimuth
KKS-1 27 Apr 04:51:18 04:55:16 31° 258° (WSW) 04:59:13 437.445
Tancredo 1 27 Apr 05:09:43 05:12:40 42° 305° (NW) 05:15:37 437.200
XW-2F 27 Apr 05:12:41 05:15:33 20° 101° (ESE) 05:18:26 145.980 - 146.000
STARS 27 Apr 05:22:34 05:26:33 33° 258° (WSW) 05:30:31 437.465
NUDT-PHONESAT 27 Apr 05:23:31 05:26:29 23° 101° (E) 05:29:30 437.300
NO-84 27 Apr 05:24:14 05:25:44 13° 235° (SW) 05:27:18 435.350 FM
SRMSAT 27 Apr 05:31:36 05:36:15 23° 197° (SSW) 05:40:53 437.500
ISS 27 Apr 05:32:10 05:35:06 30° 306° (NW) 05:38:01 437.550
SO-50 27 Apr 05:34:47 05:35:49 11° 292° (WNW) 05:36:52 436.795
CUTE-I 27 Apr 05:39:25 05:44:31 49° 103° (ESE) 05:49:39 437.470
DOVE 4 27 Apr 05:48:57 05:53:06 54° 282° (WNW) 05:57:09 437.250
XW-2D 27 Apr 06:01:32 06:05:16 54° 281° (W) 06:09:02 145.860 - 145.880
XW-2B 27 Apr 06:08:34 06:12:13 43° 281° (W) 06:15:53 145.730 - 145.750
STRAND 1 27 Apr 06:11:51 06:15:20 19° 77° (ENE) 06:18:49 437.568
RS-15 27 Apr 06:12:01 06:23:09 57° 291° (WNW) 06:34:54 29.354- 29.394
KAITUO 1B 27 Apr 06:17:43 06:21:17 41° 281° (W) 06:24:53 145.475/437.950
LilacSat-2 27 Apr 06:20:10 06:23:26 27° 281° (W) 06:26:44 437.200
XW-2C 27 Apr 06:20:51 06:24:07 27° 281° (W) 06:27:26 145.795 - 145.815
M-CUBED/EXP-1 PRIME 27 Apr 06:22:01 06:25:18 21° 73° (ENE) 06:28:43 437.505
CUBEBUG 2 27 Apr 06:41:35 06:43:14 12° 103° (ESE) 06:44:54 437.445
XW-2F 27 Apr 06:47:58 06:49:26 12° 281° (W) 06:50:54 145.980 - 146.000
AAUSAT CUBESAT 2 27 Apr 07:00:45 07:02:41 13° 102° (ESE) 07:04:37 437.432
XW-2A 27 Apr 07:02:29 07:05:51 83° 101° (E) 07:09:16 145.665 - 145.685
CUTE 1.7 + AOD 2 27 Apr 07:07:09 07:11:26 84° 98° (E) 07:15:44 437.475
HO-68 27 Apr 07:08:31 07:15:43 81° 104° (ESE) 07:22:56 435.675
ZACube-1 27 Apr 07:22:52 07:24:34 12° 103° (ESE) 07:26:16 437.345
SRMSAT 27 Apr 07:24:01 07:26:10 12° 189° (S) 07:28:19 437.500
SEEDS 27 Apr 07:26:41 07:30:56 89° 282° (WNW) 07:35:11 437.485
AO-73 27 Apr 07:29:12 07:31:16 13° 102° (ESE) 07:33:22 145.935
Oscar 11 27 Apr 07:43:52 07:46:39 17° 102° (ESE) 07:49:26 .
STRAND 1 27 Apr 07:50:01 07:54:14 26° 257° (WSW) 07:58:27 437.568
JUGNU 27 Apr 07:52:23 07:54:45 12° 171° (S) 07:57:08 437.505
M-CUBED/EXP-1 PRIME 27 Apr 07:56:35 07:59:28 18° 256° (WSW) 08:02:27 437.505
UWE-3 27 Apr 08:01:26 08:05:45 86° 283° (WNW) 08:10:14 435.000/436.395/437.385
CUBEBUG 2 27 Apr 08:15:54 08:19:31 27° 281° (W) 08:23:17 437.445
O/OREOS (USA 219) 27 Apr 08:19:20 08:23:41 45° 104° (ESE) 08:28:02 437.305
AAUSAT CUBESAT 2 27 Apr 08:34:34 08:37:52 23° 281° (WNW) 08:41:10 437.432
FO-29 27 Apr 08:42:39 08:46:14 15° 79° (E) 08:49:38 435.910
ZACube-1 27 Apr 08:56:47 09:00:31 28° 281° (W) 09:04:21 437.345
AO-73 27 Apr 09:03:35 09:07:11 26° 281° (W) 09:10:54 145.935
PRISM 27 Apr 09:10:12 09:14:14 53° 78° (ENE) 09:18:15 437.425
DELFI C3 27 Apr 09:14:45 09:18:42 73° 102° (ESE) 09:22:39 145.870
Oscar 11 27 Apr 09:19:19 09:22:30 20° 282° (WNW) 09:25:42 .
TIGRISAT 27 Apr 09:28:20 09:32:43 47° 79° (ENE) 09:36:59 435.000
AO-85 27 Apr 09:32:04 09:35:29 19° 114° (ESE) 09:38:45 145.980
JUGNU 27 Apr 09:39:42 09:44:28 25° 163° (SSE) 09:49:11 437.505
UNISAT 6 27 Apr 09:49:29 09:54:03 76° 258° (WSW) 09:58:28 437.425
OBJECT BX 27 Apr 09:50:36 09:54:01 38° 281° (W) 09:57:28 145.990 - 145.960
FO-29 27 Apr 10:24:03 10:31:11 55° 256° (WSW) 10:37:33 435.910
ESTCUBE 1 27 Apr 10:45:27 10:49:42 40° 102° (ESE) 10:53:55 437.505/2401.250
LO-87 27 Apr 10:52:58 10:56:24 55° 281° (W) 10:59:52 145.935 - 145.965
EO-79 27 Apr 10:53:48 10:57:25 27° 78° (ENE) 11:00:59 145.935-145.965
DUCHIFAT 1 27 Apr 10:55:36 10:58:54 22° 78° (ENE) 11:02:09 145.980
VELOX 1 27 Apr 10:59:51 11:00:55 11° 102° (ESE) 11:02:01 145.980
SRMSAT 27 Apr 11:03:26 11:06:46 15° 168° (SSE) 11:10:05 437.500
AO-85 27 Apr 11:12:01 11:15:41 22° 290° (WNW) 11:19:10 145.980
AIST 2D 27 Apr 11:25:33 11:28:39 30° 259° (WSW) 11:31:45 435.315
BEESAT 3 27 Apr 11:26:30 11:30:18 68° 112° (ESE) 11:34:08 437.485
BEESAT 2 27 Apr 11:27:42 11:30:17 17° 112° (ESE) 11:32:51 435.950
JUGNU 27 Apr 11:27:50 11:33:39 65° 159° (SSE) 11:39:26 437.505
POLYITAN 1 27 Apr 11:32:31 11:36:47 76° 259° (W) 11:41:00 437.675
QB50P2 27 Apr 11:39:14 11:43:24 53° 259° (WSW) 11:47:31 145.880/145.840
DX 1 27 Apr 11:48:36 11:51:13 16° 103° (ESE) 11:53:51 434.975-435.025
BUGSAT 1 27 Apr 11:54:53 11:58:47 37° 78° (ENE) 12:02:38 437.445
SPROUT 27 Apr 11:55:37 11:59:48 71° 101° (E) 12:04:03 437.525
NANOSAT C BR1 27 Apr 12:01:01 12:04:48 32° 258° (WSW) 12:08:34 145.865
Oscar 19 27 Apr 12:21:20 12:25:12 22° 77° (ENE) 12:29:03 437.125/150
PCSat 27 Apr 12:26:03 12:31:26 77° 251° (WSW) 12:36:49 145.827
Gurwin Techsat 1B 27 Apr 12:28:35 12:30:52 13° 77° (ENE) 12:33:10 435.225
EO-79 27 Apr 12:31:29 12:32:53 11° 258° (WSW) 12:34:18 145.935-145.965
DUCHIFAT 1 27 Apr 12:32:03 12:34:17 14° 258° (WSW) 12:36:31 145.980
VELOX 1 27 Apr 12:33:15 12:37:05 30° 282° (WNW) 12:40:58 145.980
UKube-1 27 Apr 12:48:50 12:53:07 77° 104° (ESE) 12:57:24 .
SRMSAT 27 Apr 12:51:10 12:56:28 33° 161° (SSE) 13:01:47 437.500
50 SAT 27 Apr 12:57:54 13:00:18 18° 282° (WNW) 13:02:43 437.505
BEESAT 2 27 Apr 13:05:27 13:07:46 15° 292° (WNW) 13:10:05 435.950
JUGNU 27 Apr 13:17:07 13:22:41 45° 340° (NNW) 13:28:16 437.505
DX 1 27 Apr 13:23:53 13:27:08 21° 282° (WNW) 13:30:23 434.975-435.025
ITAMSAT 1 27 Apr 13:51:26 13:52:15 10° 77° (ENE) 13:53:03 435.822/435.867
BEESAT 27 Apr 13:54:51 13:58:37 23° 103° (ESE) 14:02:23 436.000
Oscar 19 27 Apr 14:00:17 14:04:14 23° 257° (WSW) 14:08:11 437.125/150
Gurwin Techsat 1B 27 Apr 14:05:35 14:10:32 40° 257° (WSW) 14:15:28 435.225
ITUPSAT 1 27 Apr 14:34:48 14:39:35 79° 102° (ESE) 14:44:24 437.325
SRMSAT 27 Apr 14:39:45 14:45:46 88° 151° (SSE) 14:51:46 437.500
YUBILEINY 27 Apr 14:41:56 14:49:47 37° 87° (E) 14:57:40 435.215
AO-7 27 Apr 14:57:18 15:05:31 64° 74° (ENE) 15:13:40 .
JUGNU 27 Apr 15:08:00 15:12:02 19° 345° (NNW) 15:16:05 437.505
MOZHAYETS 4 27 Apr 15:19:15 15:23:49 64° 281° (W) 15:28:25
ITAMSAT 1 27 Apr 15:26:26 15:31:25 46° 257° (WSW) 15:36:22 435.822/435.867
KKS-1 27 Apr 15:28:29 15:31:18 17° 103° (ESE) 15:34:07 437.445
NO-84 27 Apr 15:30:07 15:33:15 19° 124° (ESE) 15:36:15 435.350 FM
BEESAT 27 Apr 15:32:56 15:36:07 18° 282° (WNW) 15:39:19 436.000
RS-15 27 Apr 15:46:16 15:54:14 21° 66° (ENE) 16:01:53 29.354- 29.394
STARS 27 Apr 15:58:45 16:01:08 15° 103° (ESE) 16:03:31 437.465
SO-50 27 Apr 16:03:31 16:08:00 70° 68° (ENE) 16:12:33 436.795
CUBESAT XI-V 27 Apr 16:11:59 16:16:38 68° 102° (ESE) 16:21:17 437.345
SRMSAT 27 Apr 16:29:40 16:35:03 34° 341° (NNW) 16:40:26 437.500
DOVE 4 27 Apr 16:32:55 16:35:55 15° 78° (ENE) 16:38:57 437.250
YUBILEINY 27 Apr 16:39:02 16:46:11 28° 267° (W) 16:53:24 435.215
Tancredo 1 27 Apr 16:39:17 16:42:22 86° 55° (NE) 16:45:28 437.200
AO-7 27 Apr 16:53:17 16:57:50 16° 253° (WSW) 17:02:23 .
JUGNU 27 Apr 17:00:47 17:01:56 11° 354° (N) 17:03:05 437.505
KKS-1 27 Apr 17:04:17 17:07:35 21° 282° (WNW) 17:10:53 437.445
ISS 27 Apr 17:05:51 17:09:01 53° 235° (SW) 17:12:14 437.550
XW-2F 27 Apr 17:06:38 17:08:53 15° 79° (E) 17:11:08 145.980 - 146.000
NO-84 27 Apr 17:07:22 17:10:41 22° 301° (WNW) 17:13:52 435.350 FM
NUDT-PHONESAT 27 Apr 17:15:45 17:18:06 16° 79° (E) 17:20:27 437.300
STARS 27 Apr 17:33:45 17:37:11 23° 282° (WNW) 17:40:39 437.465
RS-15 27 Apr 17:54:57 18:06:24 65° 250° (WSW) 18:17:22 29.354- 29.394
XW-2D 27 Apr 17:55:17 17:59:01 69° 259° (WSW) 18:02:43 145.860 - 145.880
XW-2B 27 Apr 18:02:18 18:05:58 54° 258° (WSW) 18:09:36 145.730 - 145.750
DOVE 4 27 Apr 18:08:37 18:13:16 34° 259° (WSW) 18:18:01 437.250
KAITUO 1B 27 Apr 18:10:02 18:13:40 54° 259° (W) 18:17:15 145.475/437.950
LilacSat-2 27 Apr 18:14:29 18:17:51 31° 259° (WSW) 18:21:13 437.200
XW-2C 27 Apr 18:14:30 18:17:54 33° 259° (WSW) 18:21:17 145.795 - 145.815
CUTE-I 27 Apr 18:18:41 18:23:56 56° 257° (WSW) 18:29:09 437.470
SRMSAT 27 Apr 18:21:15 18:24:44 16° 347° (NNW) 18:28:14 437.500
M-CUBED/EXP-1 PRIME 27 Apr 18:22:57 18:24:58 15° 104° (ESE) 18:26:56 437.505
XW-2F 27 Apr 18:40:41 18:42:45 14° 258° (WSW) 18:44:50 145.980 - 146.000
STRAND 1 27 Apr 18:42:55 18:47:48 46° 103° (ESE) 18:52:42 437.568
XW-2A 27 Apr 18:45:29 18:48:40 37° 79° (E) 18:51:48 145.665 - 145.685
NUDT-PHONESAT 27 Apr 18:49:57 18:51:45 13° 258° (WSW) 18:53:32 437.300
JUGNU 27 Apr 18:51:11 18:52:09 10° 5° (N) 18:53:08 437.505
CUBEBUG 2 27 Apr 18:52:43 18:55:56 19° 79° (E) 18:59:04 437.445
HO-68 27 Apr 19:00:14 19:07:20 69° 76° (ENE) 19:14:25 435.675
AAUSAT CUBESAT 2 27 Apr 19:03:50 19:06:04 14° 78° (ENE) 19:08:19 437.432
CUTE 1.7 + AOD 2 27 Apr 19:13:31 19:17:43 78° 260° (W) 19:21:54 437.475
ZACube-1 27 Apr 19:31:55 19:34:35 16° 79° (E) 19:37:12 437.345
SEEDS 27 Apr 19:31:56 19:36:05 74° 259° (WSW) 19:40:13 437.485
AO-73 27 Apr 19:38:07 19:40:56 17° 79° (E) 19:43:43 145.935
Oscar 11 27 Apr 19:52:04 19:55:21 21° 78° (ENE) 19:58:37 .
M-CUBED/EXP-1 PRIME 27 Apr 19:57:22 19:59:11 13° 287° (WNW) 20:00:57 437.505
UWE-3 27 Apr 20:12:54 20:17:18 57° 258° (WSW) 20:21:33 435.000/436.395/437.385
CUBEBUG 2 27 Apr 20:29:00 20:32:17 19° 258° (WSW) 20:35:28 437.445
O/OREOS (USA 219) 27 Apr 20:30:12 20:34:42 81° 76° (ENE) 20:39:12 437.305
JUGNU 27 Apr 20:38:08 20:42:07 18° 15° (NNE) 20:46:07 437.505
AAUSAT CUBESAT 2 27 Apr 20:38:13 20:41:16 20° 258° (WSW) 20:44:19 437.432
HO-68 27 Apr 20:52:32 20:54:40 11° 254° (WSW) 20:56:47 435.675
ZACube-1 27 Apr 21:07:25 21:10:36 20° 258° (WSW) 21:13:44 437.345
PRISM 27 Apr 21:12:45 21:16:46 58° 101° (ESE) 21:20:48 437.425
DELFI C3 27 Apr 21:12:59 21:16:55 68° 79° (ENE) 21:20:51 145.870
AO-73 27 Apr 21:13:54 21:16:54 18° 258° (WSW) 21:19:52 145.935
Oscar 11 27 Apr 21:28:46 21:31:12 15° 258° (WSW) 21:33:39 .
OBJECT BX 27 Apr 21:40:21 21:43:55 58° 258° (WSW) 21:47:29 145.990 - 145.960
TIGRISAT 27 Apr 21:40:55 21:45:16 73° 101° (E) 21:49:46 435.000
AO-85 27 Apr 21:43:17 21:47:06 31° 69° (ENE) 21:51:12 145.980
FO-29 27 Apr 21:55:48 22:01:31 80° 103° (ESE) 22:08:03 435.910
UNISAT 6 27 Apr 22:02:34 22:06:47 48° 282° (WNW) 22:11:09 437.425
SRMSAT 27 Apr 22:03:12 22:05:21 12° 8° (N) 22:07:31 437.500
JUGNU 27 Apr 22:25:54 22:31:32 42° 20° (NNE) 22:37:11 437.505
NANOSAT C BR1 27 Apr 22:33:32 22:34:52 11° 102° (ESE) 22:36:12 145.865
LO-87 27 Apr 22:40:46 22:44:25 86° 72° (ENE) 22:48:03 145.935 - 145.965
ESTCUBE 1 27 Apr 22:59:16 23:03:43 64° 78° (ENE) 23:08:09 437.505/2401.250
EO-79 27 Apr 22:59:30 23:03:16 32° 102° (ESE) 23:07:03 145.935-145.965
DUCHIFAT 1 27 Apr 23:00:34 23:04:03 26° 102° (ESE) 23:07:33 145.980
VELOX 1 27 Apr 23:09:38 23:12:24 16° 78° (ENE) 23:15:09 145.980
AIST 2D 27 Apr 23:11:06 23:14:33 56° 281° (WNW) 23:18:04 435.315
BEESAT 3 27 Apr 23:18:13 23:22:07 69° 68° (ENE) 23:25:59 437.485
PCSat 27 Apr 23:20:22 23:24:28 22° 110° (ESE) 23:28:33 145.827
BEESAT 2 27 Apr 23:20:32 23:23:21 18° 68° (ENE) 23:26:08 435.950
AO-85 27 Apr 23:25:31 23:27:23 12° 245° (WSW) 23:29:17 145.980
POLYITAN 1 27 Apr 23:38:38 23:42:47 61° 282° (WNW) 23:46:58 437.675
QB50P2 27 Apr 23:45:28 23:49:28 43° 282° (WNW) 23:53:29 145.880/145.840
SRMSAT 27 Apr 23:50:42 23:55:19 23° 17° (NNE) 23:59:56 437.500
DX 1 27 Apr 23:57:26 00:00:48 22° 78° (ENE) 00:04:08 434.975-435.025
BUGSAT 1 27 Apr 23:57:47 00:01:32 39° 102° (ESE) 00:05:20 437.445
SPROUT 28 Apr 00:02:41 00:06:59 90° 255° (WSW) 00:11:16 437.525
NANOSAT C BR1 28 Apr 00:06:46 00:10:17 27° 282° (WNW) 00:13:51 145.865
JUGNU 28 Apr 00:14:38 00:20:38 72° 202° (SSW) 00:26:37 437.505
DUCHIFAT 1 28 Apr 00:38:00 00:39:27 12° 282° (WNW) 00:40:55 145.980
50 SAT 28 Apr 00:41:25 00:44:33 33° 259° (WSW) 00:47:42 437.505
VELOX 1 28 Apr 00:45:09 00:48:34 22° 258° (WSW) 00:51:59 145.980
Oscar 19 28 Apr 00:53:47 00:58:51 56° 103° (ESE) 01:03:54 437.125/150
UKube-1 28 Apr 00:57:12 01:01:31 81° 257° (WSW) 01:05:50 .
BEESAT 2 28 Apr 00:58:31 01:00:50 15° 248° (WSW) 01:03:09 435.950
PCSat 28 Apr 01:03:17 01:07:35 24° 290° (WNW) 01:11:53 145.827
Gurwin Techsat 1B 28 Apr 01:04:23 01:09:15 37° 103° (ESE) 01:14:07 435.225
DX 1 28 Apr 01:34:03 01:36:42 16° 257° (WSW) 01:39:20 434.975-435.025
AO-7 28 Apr 01:37:42 01:39:30 11° 108° (ESE) 01:41:18 .
SRMSAT 28 Apr 01:38:54 01:44:45 57° 21° (NNE) 01:50:35 437.500
JUGNU 28 Apr 02:04:49 02:09:50 27° 198° (SSW) 02:14:51 437.505
BEESAT 28 Apr 02:15:59 02:20:31 44° 78° (ENE) 02:25:01 436.000
ITAMSAT 1 28 Apr 02:22:40 02:27:04 29° 103° (ESE) 02:31:30 435.822/435.867
Gurwin Techsat 1B 28 Apr 02:46:20 02:48:55 14° 283° (WNW) 02:51:30 435.225
ITUPSAT 1 28 Apr 02:57:17 03:01:55 51° 257° (WSW) 03:06:31 437.325
YUBILEINY 28 Apr 03:14:44 03:23:26 71° 93° (E) 03:32:02 435.215
AO-7 28 Apr 03:23:25 03:31:45 83° 286° (WNW) 03:40:08 .
SRMSAT 28 Apr 03:28:11 03:33:58 52° 201° (SSW) 03:39:44 437.500
RS-15 28 Apr 03:28:49 03:35:10 16° 112° (ESE) 03:41:37 29.354- 29.394
MOZHAYETS 4 28 Apr 03:36:22 03:40:33 36° 258° (WSW) 03:44:43
KKS-1 28 Apr 03:40:04 03:43:44 25° 78° (ENE) 03:47:23 437.445
JUGNU 28 Apr 03:56:44 03:59:31 13° 191° (S) 04:02:17 437.505
ITAMSAT 1 28 Apr 04:02:56 04:06:15 17° 283° (WNW) 04:09:37 435.822/435.867
STARS 28 Apr 04:08:37 04:11:57 21° 78° (ENE) 04:15:15 437.465
Tancredo 1 28 Apr 04:09:14 04:12:09 38° 126° (SE) 04:15:04 437.200
SO-50 28 Apr 04:16:12 04:20:51 61° 292° (WNW) 04:25:26 436.795
CUBESAT XI-V 28 Apr 04:30:14 04:34:49 68° 258° (WSW) 04:39:24 437.345
